This demonstration page uses our WeatherBlox Daily Observations layout. Learn more.

Left ArrowRight Arrow

Hourly Observations for March 1, 2018

Temp ( °F °C ) Dew Point ( °F °C ) Humidity (%) Winds ( mph kmh ) Pressure ( in mb ) Visibility ( mi km ) Precip ( " mm )
12:53 am 00:53 Cloudy 48 8.9 43 6.1 83 83 SSE 30 48 29.85 1011 10 16 0.00 0.00
1:53 am 01:53 Cloudy 47 8.3 42 5.6 83 83 SSE 23 37 29.83 1010 10 16 0.00 0.00
2:53 am 02:53 Cloudy 47 8.3 40 4.4 77 77 SSE 24 39 29.78 1009 10 16 0.00 0.00
3:53 am 03:53 Cloudy 47 8.3 42 5.6 83 83 S 23 37 29.75 1008 10 16 0.00 0.00
4:53 am 04:53 Cloudy 47 8.3 43 6.1 86 86 S 32 52 29.74 1007 10 16 0.01 0.25
5:07 am 05:07 Cloudy with Light Rain 46 7.8 43 6.1 89 89 S 29 46 29.77 1008 9 14 0.00 0.03
5:20 am 05:20 Cloudy with Light Rain 46 7.8 43 6.1 89 89 S 30 48 29.77 1008 7 11 0.00 0.03
5:53 am 05:53 Cloudy with Light Rain 46 7.8 43 6.1 89 89 S 37 59 29.72 1007 10 16 0.01 0.25
6:53 am 06:53 Cloudy 46 7.8 43 6.1 89 89 S 31 50 29.70 1006 8 13 0.00 0.03
7:32 am 07:32 Cloudy with Light Rain 45 7.2 44 6.7 97 97 S 29 46 29.74 1007 4 6 0.02 0.51
7:53 am 07:53 Cloudy 46 7.8 43 6.1 89 89 S 28 44 29.71 1006 10 16 0.04 1.02
8:53 am 08:53 Cloudy 47 8.3 44 6.7 90 90 S 26 43 29.70 1006 9 14 0.00 0.00
9:53 am 09:53 Cloudy 47 8.3 44 6.7 90 90 S 32 52 29.68 1005 10 16 0.00 0.03
10:53 am 10:53 Cloudy 49 9.4 46 7.8 90 90 SSE 25 41 29.67 1005 10 16 0.00 0.00
11:45 am 11:45 Mostly Cloudy 50 10 45 7.2 83 83 S 31 50 29.68 1005 10 16 0.00 0.00
11:53 am 11:53 Mostly Cloudy 50 10 45 7.2 83 83 SSE 28 44 29.66 1004 8 13 0.00 0.00
12:04 pm 12:04 Cloudy with Nearby Thunderstorms 47 8.3 45 7.2 93 93 SSW 17 28 29.68 1005 1 2 0.04 1.02
12:19 pm 12:19 Cloudy with Thunderstorms 46 7.8 43 6.1 89 89 S 24 39 29.68 1005 2 3 0.28 7.11
12:23 pm 12:23 Windy with Storms Likely 48 8.9 44 6.7 86 86 SSE 24 39 29.68 1005 3 5 0.28 7.11
12:39 pm 12:39 Partly Cloudy 51 10.6 46 7.8 83 83 S 30 48 29.65 1004 10 16 0.29 7.37
12:53 pm 12:53 Mostly Sunny 53 11.7 47 8.3 80 80 S 21 33 29.62 1003 10 16 0.29 7.37
1:53 pm 13:53 Mostly Cloudy 54 12.2 46 7.8 75 75 S 29 46 29.57 1001 10 16 0.00 0.00
2:53 pm 14:53 Cloudy 56 13.3 40 4.4 55 55 S 33 54 29.54 1000 10 16 0.00 0.00
3:53 pm 15:53 Cloudy 53 11.7 37 2.8 55 55 S 29 46 29.54 1000 10 16 0.00 0.03
4:53 pm 16:53 Mostly Cloudy 53 11.7 35 1.7 51 51 S 26 43 29.54 1000 10 16 0.00 0.00
5:53 pm 17:53 Cloudy 52 11.1 33 0.6 49 49 SSW 16 26 29.55 1001 10 16 0.00 0.00
6:53 pm 18:53 Cloudy with Light Rain 48 8.9 39 3.9 71 71 S 23 37 29.55 1001 10 16 0.00 0.03
7:53 pm 19:53 Cloudy with Light Rain 45 7.2 40 4.4 83 83 WSW 15 24 29.60 1002 8 13 0.03 0.76
8:53 pm 20:53 Cloudy 43 6.1 35 1.7 74 74 W 8 13 29.60 1003 10 16 0.01 0.25
9:53 pm 21:53 Mostly Clear 43 6.1 34 1.1 71 71 W 6 9 29.64 1004 10 16 0.00 0.00
10:53 pm 22:53 Clear 41 5 34 1.1 76 76 Calm 29.66 1004 10 16 0.00 0.00
11:53 pm 23:53 Mostly Clear 38 3.3 34 1.1 86 86 Calm 29.70 1006 10 16 0.00 0.00

Powered by AerisWeather